Raton, NM

2:08 PM MST on December 13, 2017 (GMT -0700)
Raton Municipal-Crews

Weather History for KRTN - May, 2013

Change the Weather History Date:

Saturday, May 11, 2013

  Actual Average (KTAD) Record (KTAD)
Temperature  
Mean Temperature 51 °F -  
Max Temperature 66 °F 73 °F 90 °F (1961)
Min Temperature 36 °F 43 °F 28 °F (2003)
Degree Days  
Heating Degree Days 14    
Growing Degree Days 1 (Base 50)    
Moisture  
Dew Point 32 °F    
Average Humidity 49    
Maximum Humidity 86    
Minimum Humidity 21    
Precipitation  
Precipitation 0.00 in - - ()
Sea Level Pressure  
Sea Level Pressure 30.23 in    
Wind  
Wind Speed 9 mph (ENE)    
Max Wind Speed 20 mph    
Max Gust Speed 33 mph    
Visibility 10 miles    
Events      
Averages and records for this station are not official NWS values.
T = Trace of Precipitation, MM = Missing Value Source: NWS Daily Summary

Daily Weather History Graph

Daily Weather History Graph

Search for Another Location

Airport or City:

Trip Planner

Search our weather history database for the weather conditions in past years. The results will help you decide how hot, cold, wet, or windy it might be!

Date:

Astronomy

May. 11, 2013 Rise Set
Actual Time 5:53 AM MDT 7:55 PM MDT
Civil Twilight 5:25 AM MDT 8:24 PM MDT
Nautical Twilight 4:50 AM MDT 8:59 PM MDT
Astronomical Twilight 4:12 AM MDT 9:36 PM MDT
Moon 7:04 AM MDT (5/11) 9:36 PM MDT (5/11)
Length of Visible Light 14h 59m
Length of Day
14h 01m
Waxing Crescent, 3% of the Moon is Illuminated
May 11
Waxing Crescent
May 17
First Quarter
May 24
Full
May 31
Last Quarter
Jun 8
New

Hourly Weather History & Observations

Time (MDT) Temp. Windchill Dew Point Humidity Pressure Visibility Wind Dir Wind Speed Gust Speed Precip Events Conditions
12:53 AM 46.0 °F 43.9 °F 34.0 °F 63% 30.18 in 10.0 mi NNE 4.6 mph - N/A   Clear
1:53 AM 39.9 °F 36.7 °F 33.1 °F 77% 30.20 in 10.0 mi East 4.6 mph - N/A   Clear
2:53 AM 41.0 °F 38.0 °F 33.1 °F 73% 30.19 in 10.0 mi ENE 4.6 mph - N/A   Clear
3:53 AM 37.0 °F 32.4 °F 33.1 °F 86% 30.22 in 10.0 mi East 5.8 mph - N/A   Clear
4:53 AM 36.0 °F 30.3 °F 32.0 °F 86% 30.23 in 10.0 mi East 6.9 mph - N/A   Clear
5:53 AM 37.0 °F 31.0 °F 32.0 °F 82% 30.24 in 10.0 mi East 8.1 mph - N/A   Clear
6:53 AM 39.9 °F 37.8 °F 33.1 °F 77% 30.26 in 10.0 mi ESE 3.5 mph - N/A   Mostly Cloudy
7:53 AM 54.0 °F - 34.0 °F 47% 30.23 in 10.0 mi NNE 13.8 mph - N/A   Clear
8:53 AM 57.0 °F - 35.1 °F 44% 30.24 in 10.0 mi North 17.3 mph 26.5 mph N/A   Partly Cloudy
9:53 AM 57.0 °F - 35.1 °F 44% 30.27 in 10.0 mi NE 19.6 mph 26.5 mph N/A   Clear
10:53 AM 60.1 °F - 36.0 °F 41% 30.28 in 10.0 mi NNE 17.3 mph 23.0 mph N/A   Partly Cloudy
11:53 AM 61.0 °F - 35.1 °F 38% 30.28 in 10.0 mi NNE 8.1 mph 19.6 mph N/A   Clear
12:53 PM 64.0 °F - 30.0 °F 28% 30.25 in 10.0 mi NE 18.4 mph 25.3 mph N/A   Clear
1:53 PM 66.9 °F - 26.1 °F 21% 30.25 in 10.0 mi North 10.4 mph 33.4 mph N/A   Clear
2:53 PM 64.9 °F - 32.0 °F 29% 30.24 in 10.0 mi East 15.0 mph 21.9 mph N/A   Mostly Cloudy
3:53 PM 64.9 °F - 30.9 °F 28% 30.22 in 10.0 mi East 17.3 mph 27.6 mph N/A   Partly Cloudy
4:53 PM 64.0 °F - 30.9 °F 29% 30.23 in 10.0 mi East 6.9 mph - N/A   Clear
5:53 PM 62.1 °F - 28.9 °F 29% 30.22 in 10.0 mi ESE 8.1 mph - N/A   Clear
6:53 PM 61.0 °F - 30.0 °F 31% 30.21 in 10.0 mi South 15.0 mph - N/A   Mostly Cloudy
7:53 PM 55.0 °F - 28.0 °F 35% 30.19 in 10.0 mi South 9.2 mph - N/A   Clear
8:53 PM 51.1 °F - 28.0 °F 41% 30.21 in 10.0 mi South 9.2 mph - N/A   Clear
9:53 PM 51.1 °F - 30.0 °F 44% 30.25 in 10.0 mi SW 5.8 mph - N/A   Mostly Cloudy
10:53 PM 46.9 °F - 28.9 °F 50% 30.25 in 10.0 mi South 4.6 mph - N/A   Partly Cloudy
11:53 PM 48.0 °F - 32.0 °F 54% 30.24 in 10.0 mi NNE 5.8 mph - N/A   Mostly Cloudy